Flag for Czech Republic Weather past 2 weeks in Ostrava, Czech Republic

Now
39 °F

Overcast.


Feels Like: 33 °F
Forecast: 34 / 43 °F
Wind: 9 mph from Southwest

Location: Ostrava / Mosnov

Current Time: Apr 1, 2015 at 12:29:11 PM

Latest Report: Apr 1, 2015 at 11:00 AM


Visibility: 16 mi

Pressure: 29.73 "Hg

Humidity: 70%

Dew point: 30 °F

Location of OstravaLocation

Historic Weather in Ostrava — Graph

°F

Ostrava temperature yesterday

Maximum temperature yesterday: 46 °F (at 5:00 PM)
Minimum temperature yesterday: 33 °F (at 4:00 AM)
Average temperature yesterday: 40 °F

Past Weeks' High & Low Weather Summary

 TemperatureHumidityPressure
High64 °F (Mar 25, 12:00 PM)97% (Mar 29, 7:00 AM)30.58 "Hg (Mar 29, 7:00 AM)
Low26 °F (Mar 20, 6:00 AM)31% (Mar 18, 2:00 PM)29.32 "Hg (Mar 31, 3:00 PM)
Average44 °F69%29.98 "Hg
* Reported Mar 17 10:00 AM — Apr 1 11:00 AM, Ostrava, Weather by CustomWeather, © 2015

Note: Actual official high and low records may vary slightly from our data, if they occured in-between our weather recording intervals... More about our weather records

Advertising

Ostrava weather history for previous 24 hours

 ConditionsComfort  
Time TempWeatherWind HumidityBarometerVisibility
11:00 AM
Wed, Apr 1
39 °FOvercast.9 mph70%29.73 "Hg16 mi
10:00 AM39 °FOvercast.9 mph69%29.70 "Hg25 mi
9:00 AM38 °FPartly sunny.7 mph74%29.68 "Hg25 mi
8:00 AM37 °FPartly sunny.8 mph82%29.66 "Hg16 mi
7:00 AM36 °FScattered clouds.5 mph83%29.63 "Hg12 mi
6:00 AM38 °FPassing clouds.8 mph61%29.61 "Hg9 mi
4:00 AM39 °FPassing clouds.9 mph70%29.60 "Hg25 mi
3:00 AM38 °FPassing clouds.9 mph68%29.57 "Hg25 mi
2:00 AM40 °FPassing clouds.7 mph63%29.59 "Hg25 mi
1:00 AM41 °FPassing clouds.7 mph64%29.60 "Hg25 mi
12:00 AM42 °FPassing clouds.10 mph70%29.56 "Hg25 mi
10:00 PM
Tue, Mar 31
42 °FPassing clouds.7 mph66%29.54 "Hg25 mi
9:00 PM43 °FPassing clouds.14 mph71%29.47 "Hg12 mi
8:00 PM40 °FSprinkles. Passing clouds.10 mph81%29.44 "Hg6 mi
7:00 PM44 °FScattered clouds.7 mph84%29.38 "Hg7 mi
6:00 PM46 °FPartly sunny.12 mph78%29.35 "Hg16 mi
5:00 PM46 °FSprinkles. Partly sunny.13 mph76%29.35 "Hg9 mi
4:00 PM45 °FPartly sunny.9 mph89%29.35 "Hg9 mi
3:00 PM45 °FSprinkles. Overcast.13 mph83%29.32 "Hg9 mi
2:00 PM42 °FLight rain. Overcast.13 mph86%29.35 "Hg7 mi
1:11 PM41 °FLight rain. Overcast.12 mph86%29.35 "Hg5 mi
12:00 PM40 °FLight rain. Overcast.14 mph83%29.38 "Hg6 mi
Weather by CustomWeather, © 2015

See weather overviewHow to use our weather pages